| time (UTC) | temp F | wind direction | speed MPH | gust MPH | rain 1hr in | rain 24hr in | rain mn in | humidity % | barometer mb |
| 20260504023004 | 55 | 248 | 2.0 | 5.0 | 0.00 | 0.01 | 0.01 | 56 | 1015.9 |
| 20260504021504 | 56 | 228 | 2.0 | 7.0 | 0.00 | 0.01 | 0.01 | 55 | 1015.9 |
| 20260504020012 | 56 | 244 | 5.0 | 14.0 | 0.00 | 0.01 | 0.01 | 54 | 1015.9 |
| 20260504014503 | 57 | 245 | 5.0 | 14.0 | 0.00 | 0.01 | 0.01 | 53 | 1015.5 |
| 20260504013003 | 57 | 229 | 6.0 | 12.0 | 0.00 | 0.01 | 0.01 | 53 | 1015.9 |
| 20260504011503 | 58 | 242 | 5.0 | 13.0 | 0.00 | 0.01 | 0.01 | 51 | 1016.1 |
| 20260504010003 | 58 | 240 | 7.0 | 12.0 | 0.00 | 0.01 | 0.01 | 51 | 1016.2 |
| 20260504004503 | 59 | 229 | 7.0 | 14.0 | 0.00 | 0.01 | 0.01 | 48 | 1016.0 |
| 20260504003003 | 60 | 248 | 7.0 | 16.0 | 0.00 | 0.01 | 0.01 | 47 | 1016.2 |
| 20260504001503 | 60 | 234 | 6.0 | 16.0 | 0.00 | 0.01 | 0.01 | 47 | 1016.4 |
| 20260504000002 | 60 | 273 | 7.0 | 14.0 | 0.00 | 0.01 | 0.01 | 45 | 1016.4 |
| 20260503234504 | 61 | 249 | 8.0 | 16.0 | 0.00 | 0.01 | 0.01 | 44 | 1016.6 |
| 20260503233004 | 61 | 238 | 7.0 | 15.0 | 0.00 | 0.01 | 0.01 | 43 | 1016.7 |
| 20260503231503 | 60 | 213 | 7.0 | 19.0 | 0.00 | 0.01 | 0.01 | 43 | 1016.8 |
| 20260503230003 | 60 | 229 | 8.0 | 15.0 | 0.00 | 0.02 | 0.01 | 43 | 1017.1 |
| 20260503224504 | 61 | 236 | 10.0 | 19.0 | 0.00 | 0.02 | 0.01 | 43 | 1017.3 |
| 20260503223003 | 62 | 215 | 5.0 | 18.0 | 0.00 | 0.02 | 0.01 | 41 | 1017.5 |
| 20260503221504 | 61 | 225 | 5.0 | 11.0 | 0.00 | 0.02 | 0.01 | 42 | 1017.5 |
| 20260503220014 | 61 | 270 | 11.0 | 19.0 | 0.00 | 0.02 | 0.01 | 43 | 1017.9 |
| 20260503214502 | 61 | 243 | 11.0 | 17.0 | 0.00 | 0.02 | 0.01 | 42 | 1017.9 |
| 20260503213008 | 61 | 250 | 7.0 | 12.0 | 0.00 | 0.02 | 0.01 | 43 | 1018.3 |
| 20260503211503 | 61 | 258 | 4.0 | 13.0 | 0.00 | 0.02 | 0.01 | 42 | 1018.7 |
| 20260503210003 | 61 | 259 | 6.0 | 15.0 | 0.00 | 0.02 | 0.01 | 39 | 1019.1 |
| 20260503204504 | 61 | 275 | 7.0 | 14.0 | 0.00 | 0.02 | 0.01 | 39 | 1019.5 |
| 20260503203002 | 61 | 302 | 7.0 | 15.0 | 0.00 | 0.02 | 0.01 | 39 | 1019.4 |
| 20260503201502 | 61 | 250 | 6.0 | 14.0 | 0.00 | 0.02 | 0.01 | 40 | 1019.7 |
| 20260503200004 | 61 | 266 | 7.0 | 16.0 | 0.00 | 0.02 | 0.01 | 39 | 1019.8 |
| 20260503194503 | 61 | 263 | 7.0 | 14.0 | 0.00 | 0.02 | 0.01 | 39 | 1019.8 |
| 20260503193003 | 63 | 254 | 3.0 | 8.0 | 0.00 | 0.02 | 0.01 | 43 | 1020.0 |
| 20260503191508 | 62 | 94 | 2.0 | 7.0 | 0.00 | 0.02 | 0.01 | 47 | 1020.2 |
| 20260503190002 | 62 | 140 | 4.0 | 9.0 | 0.00 | 0.02 | 0.01 | 43 | 1020.2 |
| 20260503184502 | 62 | 46 | 3.0 | 10.0 | 0.00 | 0.02 | 0.01 | 39 | 1020.6 |
| 20260503183002 | 62 | 136 | 3.0 | 11.0 | 0.00 | 0.02 | 0.01 | 43 | 1020.9 |
| 20260503181503 | 61 | 130 | 3.0 | 8.0 | 0.00 | 0.02 | 0.01 | 44 | 1021.3 |
| 20260503180012 | 60 | 272 | 4.0 | 9.0 | 0.00 | 0.02 | 0.01 | 45 | 1021.8 |
| 20260503174502 | 59 | 81 | 3.0 | 10.0 | 0.00 | 0.02 | 0.01 | 47 | 1022.0 |
| 20260503173003 | 58 | 190 | 3.0 | 11.0 | 0.00 | 0.02 | 0.01 | 49 | 1022.4 |
| 20260503171503 | 58 | 74 | 4.0 | 10.0 | 0.00 | 0.02 | 0.01 | 49 | 1022.7 |
| 20260503081509 | 34 | 269 | 4.0 | 9.0 | 0.00 | 0.02 | 0.01 | 90 | 1024.6 |
| 20260503071504 | 35 | 276 | 3.0 | 8.0 | 0.01 | 0.02 | 0.01 | 89 | 1025.0 |
| 20260503054511 | 36 | 288 | 2.0 | 5.0 | 0.00 | 0.01 | 0.01 | 89 | 1025.0 |
| 20260503053004 | 37 | 272 | 2.0 | 7.0 | 0.00 | 0.01 | 0.01 | 89 | 1024.9 |
| 20260503051504 | 37 | 265 | 2.0 | 7.0 | 0.00 | 0.01 | 0.01 | 89 | 1024.9 |
| 20260503050022 | 38 | 296 | 2.0 | 4.0 | 0.00 | 0.01 | 0.01 | 89 | 1024.9 |
| 20260503044504 | 38 | 273 | 1.0 | 4.0 | 0.00 | 0.01 | 0.01 | 88 | 1024.8 |
| 20260503043003 | 39 | 295 | 1.0 | 3.0 | 0.00 | 0.01 | 0.01 | 88 | 1024.9 |
| 20260503041508 | 39 | 295 | 1.0 | 4.0 | 0.00 | 0.01 | 0.01 | 88 | 1025.2 |
| 20260503040005 | 40 | 274 | 1.0 | 3.0 | 0.00 | 0.01 | 0.01 | 88 | 1025.2 |
| 20260503034504 | 41 | 106 | 0.0 | 3.0 | 0.00 | 0.01 | 0.01 | 88 | 1025.2 |
| 20260503033004 | 42 | 106 | 0.0 | 1.0 | 0.00 | 0.01 | 0.01 | 87 | 1025.0 |
| 20260503031504 | 42 | 106 | 0.0 | 0.0 | 0.00 | 0.01 | 0.01 | 87 | 1024.8 |
| 20260503030005 | 43 | 106 | 0.0 | 0.0 | 0.00 | 0.01 | 0.01 | 87 | 1024.6 |
| 20260503024503 | 43 | 106 | 0.0 | 2.0 | 0.00 | 0.01 | 0.01 | 86 | 1024.7 |